TimeCST,TemperatureF,Dew PointF,Humidity,Sea Level PressureIn,VisibilityMPH,Wind Direction,Wind SpeedMPH,Gust SpeedMPH,PrecipitationIn,Events,Conditions,WindDirDegrees,DateUTC
12:55 AM,46.9,44.8,92,30.24,10.0,Variable,4.6,-,N/A,,Mostly Cloudy,0,2013-01-06 06:55:00
1:55 AM,48.2,43.5,84,30.24,10.0,ENE,3.5,-,N/A,,Overcast,60,2013-01-06 07:55:00
2:32 AM,50.0,41.0,71,30.23,10.0,ENE,3.5,-,N/A,,Overcast,60,2013-01-06 08:32:00
2:55 AM,49.6,41.9,75,30.22,10.0,ENE,5.8,-,N/A,,Overcast,60,2013-01-06 08:55:00
3:55 AM,49.8,42.4,76,30.21,10.0,East,5.8,-,N/A,,Mostly Cloudy,90,2013-01-06 09:55:00
4:38 AM,50.0,42.8,76,30.19,10.0,Calm,Calm,-,N/A,,Overcast,0,2013-01-06 10:38:00
4:55 AM,50.4,43.2,76,30.20,10.0,NNE,5.8,-,N/A,,Overcast,30,2013-01-06 10:55:00
5:11 AM,50.0,44.6,82,30.20,10.0,Calm,Calm,-,N/A,,Overcast,0,2013-01-06 11:11:00
5:24 AM,50.0,44.6,82,30.21,10.0,North,5.8,-,N/A,,Overcast,10,2013-01-06 11:24:00
5:28 AM,50.0,44.6,82,30.21,10.0,NNE,6.9,-,N/A,,Overcast,20,2013-01-06 11:28:00
5:35 AM,50.0,44.6,82,30.21,10.0,North,4.6,-,N/A,,Overcast,10,2013-01-06 11:35:00
5:55 AM,49.1,44.6,84,30.19,10.0,East,4.6,-,N/A,,Overcast,80,2013-01-06 11:55:00
6:55 AM,48.9,45.5,88,30.22,10.0,NNE,5.8,-,N/A,,Overcast,20,2013-01-06 12:55:00
7:55 AM,48.7,45.0,87,30.24,10.0,NNE,6.9,-,N/A,,Overcast,30,2013-01-06 13:55:00
8:43 AM,50.0,44.6,82,30.24,10.0,NE,5.8,-,N/A,,Overcast,50,2013-01-06 14:43:00
8:55 AM,50.2,45.0,82,30.25,10.0,Variable,4.6,-,N/A,,Overcast,0,2013-01-06 14:55:00
9:55 AM,51.3,44.8,78,30.25,10.0,NNE,5.8,-,N/A,,Overcast,30,2013-01-06 15:55:00
10:55 AM,52.3,44.4,74,30.21,10.0,ENE,9.2,-,N/A,,Overcast,60,2013-01-06 16:55:00
11:55 AM,53.2,45.1,74,30.19,10.0,NE,8.1,-,N/A,,Overcast,50,2013-01-06 17:55:00
11:57 AM,53.6,44.6,72,30.19,10.0,NE,5.8,-,N/A,,Overcast,50,2013-01-06 17:57:00
12:55 PM,53.4,45.9,76,30.17,10.0,NE,5.8,-,N/A,,Overcast,40,2013-01-06 18:55:00
1:45 PM,53.6,46.4,77,30.16,10.0,NE,6.9,-,N/A,,Overcast,40,2013-01-06 19:45:00
1:55 PM,54.0,46.6,76,30.16,10.0,Variable,4.6,-,N/A,,Overcast,0,2013-01-06 19:55:00
2:00 PM,53.6,46.4,77,30.15,10.0,NE,6.9,-,N/A,,Overcast,50,2013-01-06 20:00:00
2:21 PM,55.4,46.4,72,30.16,10.0,NE,5.8,-,N/A,,Light Drizzle,50,2013-01-06 20:21:00
2:30 PM,55.4,46.4,72,30.16,10.0,NNE,4.6,-,N/A,,Scattered Clouds,30,2013-01-06 20:30:00
2:55 PM,54.9,47.3,76,30.16,10.0,NNE,4.6,-,0.00,,Scattered Clouds,30,2013-01-06 20:55:00
3:55 PM,54.5,47.5,77,30.17,10.0,NNE,6.9,-,N/A,,Overcast,20,2013-01-06 21:55:00
4:55 PM,53.8,45.5,74,30.19,10.0,NNE,5.8,-,N/A,,Overcast,20,2013-01-06 22:55:00
5:55 PM,53.4,45.5,75,30.20,10.0,NE,5.8,-,N/A,,Overcast,40,2013-01-06 23:55:00
6:55 PM,52.9,46.0,78,30.21,10.0,NNE,5.8,-,N/A,,Overcast,30,2013-01-07 00:55:00
7:55 PM,53.1,45.5,75,30.24,10.0,NNE,5.8,-,N/A,,Overcast,20,2013-01-07 01:55:00
8:55 PM,52.0,45.1,77,30.24,10.0,NNE,4.6,-,N/A,,Partly Cloudy,20,2013-01-07 02:55:00
9:55 PM,50.9,45.3,81,30.26,10.0,North,5.8,-,N/A,,Overcast,10,2013-01-07 03:55:00
10:55 PM,50.0,45.7,85,30.24,10.0,NNE,4.6,-,N/A,,Clear,30,2013-01-07 04:55:00
11:55 PM,49.5,45.1,85,30.25,10.0,NNE,5.8,-,N/A,,Partly Cloudy,20,2013-01-07 05:55:00